GW5339 Weather Reports


time (UTC)temp
C
wind
direction
speed
KPH
gust
KPH
rain 1hr
cm
rain 24hr
cm
rain mn
cm
humidity
%
barometer
mb
20260504193014 23 255 1.6 9.7 0.00 0.00 0.00 36 1014.1
20260504191530 23 279 3.2 4.8 0.00 0.00 0.00 36 1014.4
20260504190023 23 259 3.2 11.3 0.00 0.00 0.00 37 1014.5
20260504184527 23 278 1.6 12.9 0.00 0.00 0.00 35 1014.7
20260504183028 23 217 1.6 9.7 0.00 0.00 0.00 36 1014.7
20260504181517 23 259 3.2 12.9 0.00 0.00 0.00 36 1015.0
20260504180019 24 280 4.8 9.7 0.00 0.00 0.00 34 1015.1
20260504174520 23 262 3.2 11.3 0.00 0.00 0.00 37 1015.2
20260504173030 23 274 1.6 11.3 0.00 0.00 0.00 36 1015.3
20260504171533 23 251 1.6 8.0 0.00 0.00 0.00 36 1015.4
20260504081513 3 168 0.0 0.0 0.00 0.00 0.00 88 1016.4
20260504050016 5 167 0.0 0.0 0.00 0.00 0.00 84 1017.0
20260504044517 5 167 0.0 1.6 0.00 0.00 0.00 83 1017.0
20260504043017 6 236 0.0 1.6 0.00 0.00 0.00 82 1016.8
20260504041515 6 246 0.0 0.0 0.00 0.00 0.00 82 1016.5
20260504040035 6 246 0.0 0.0 0.00 0.00 0.00 81 1016.4
20260504034518 7 246 0.0 0.0 0.00 0.00 0.00 80 1016.4
20260504033017 7 246 0.0 0.0 0.00 0.00 0.00 78 1016.6
20260504031520 7 246 0.0 0.0 0.00 0.00 0.00 77 1016.7
20260504030017 7 246 0.0 0.0 0.00 0.00 0.00 76 1016.8
20260504024520 8 240 0.0 0.0 0.00 0.00 0.00 75 1016.8
20260504023020 8 240 0.0 1.6 0.00 0.00 0.00 74 1016.9
20260504021520 9 241 0.0 0.0 0.00 0.00 0.00 71 1016.6
20260504020019 10 241 0.0 1.6 0.00 0.00 0.00 68 1016.5
20260504014525 10 241 0.0 0.0 0.00 0.00 0.00 68 1016.2
20260504013019 11 241 0.0 0.0 0.00 0.00 0.00 63 1015.9
20260504011521 11 241 0.0 0.0 0.00 0.00 0.00 60 1015.9
20260504010018 12 241 0.0 0.0 0.00 0.00 0.00 57 1015.7
20260504004528 13 241 0.0 0.0 0.00 0.00 0.00 55 1015.6
20260504003017 13 241 0.0 1.6 0.00 0.00 0.00 55 1015.4
20260504001517 15 240 0.0 0.0 0.00 0.00 0.00 47 1015.1
20260504000020 15 240 0.0 1.6 0.00 0.00 0.00 44 1015.1
20260503234522 15 240 0.0 0.0 0.00 0.00 0.00 40 1015.0
20260503233021 16 240 0.0 0.0 0.00 0.00 0.00 40 1014.9
20260503231520 16 240 0.0 1.6 0.00 0.00 0.00 39 1014.9
20260503230022 17 257 0.0 1.6 0.00 0.00 0.00 36 1015.0
20260503224524 17 257 0.0 1.6 0.00 0.00 0.00 34 1015.1
20260503223021 17 221 1.6 3.2 0.00 0.00 0.00 32 1015.1
20260503221523 17 269 1.6 4.8 0.00 0.00 0.00 32 1015.2
20260503220016 18 243 3.2 9.7 0.00 0.00 0.00 30 1015.2
20260503214517 18 298 0.0 1.6 0.00 0.00 0.00 34 1015.4
20260503213022 18 281 1.6 3.2 0.00 0.00 0.00 32 1015.5
20260503211524 18 229 0.0 3.2 0.00 0.00 0.00 29 1015.7
20260503210025 18 271 1.6 3.2 0.00 0.00 0.00 29 1015.9
20260503204520 18 247 4.8 6.4 0.00 0.00 0.00 30 1016.0
20260503203023 17 225 1.6 6.4 0.00 0.00 0.00 31 1016.1
20260503201525 17 169 0.0 9.7 0.00 0.00 0.00 31 1016.3
20260503200024 17 240 6.4 12.9 0.00 0.00 0.00 30 1016.6
20260503194526 17 262 3.2 12.9 0.00 0.00 0.00 33 1016.7